Location: Unspecified
(45.3712°N, 0.6436°E)
Time: 01:30:43
(UTC+02:00)

ISS - Pass Details

Date: 21 July 2018
Orbit: 402 x 408 km, 51.6° (Epoch: 22 July)

Event Time Altitude Azimuth Distance (km) Brightness Sun altitude
Rises 04:33:18 0° 298° (WNW) 2,332 -0.1 -15.9°
Reaches altitude 10° 04:35:23 10° 297° (WNW) 1,470 -1.1 -15.7°
Maximum altitude 04:38:41 77° 212° (SSW) 422 -4.0 -15.3°
Drops below altitude 10° 04:41:58 10° 126° (SE) 1,465 -1.0 -15.0°
Sets 04:44:02 0° 124° (SE) 2,323 0.1 -14.7°
